This is the latest recevied weather packets stored in our database for station/object EA3GKP-10. If no packets are shown the sender has not sent any weather packets the latest 10 day(s).
| Time | Temp. | Humidity | Pressure | Rain* | Wind** | Luminosity | Snow |
|---|---|---|---|---|---|---|---|
| 1788522865 | 28.33° C | - | - | 0 mm | 1.34 m/s, 142° | - | - |
| 1788522558 | 28.89° C | - | - | 0 mm | 1.34 m/s, 166° | - | - |
| 1788522251 | 27.78° C | - | - | 0 mm | 1.79 m/s, 221° | - | - |
| 1788521641 | 26.67° C | - | - | 0 mm | 1.34 m/s, 152° | - | - |
| 1788521338 | 26.67° C | - | - | 0 mm | 1.34 m/s, 128° | - | - |
| 1788521032 | 28.33° C | - | - | 0 mm | 0.45 m/s, 125° | - | - |
| 1788520725 | 27.22° C | - | - | 0 mm | 0.89 m/s, 165° | - | - |
| 1788520421 | 27.78° C | - | - | 0 mm | 0.89 m/s, 115° | - | - |
| 1788520118 | 27.78° C | - | - | 0 mm | 0.89 m/s, 186° | - | - |
| 1788519811 | 27.78° C | - | - | 0 mm | 0 m/s | - | - |
| 1788519508 | 27.22° C | - | - | 0 mm | 0.89 m/s, 159° | - | - |
| 1788519202 | 26.11° C | - | - | 0 mm | 0.89 m/s, 163° | - | - |
| 1788518899 | 27.22° C | - | - | 0 mm | 1.34 m/s, 122° | - | - |
| 1788518592 | 27.22° C | - | - | 0 mm | 0.89 m/s, 13° | - | - |
| 1788518288 | 26.67° C | - | - | 0 mm | 1.79 m/s, 80° | - | - |
| 1788517984 | 26.67° C | - | - | 0 mm | 1.34 m/s, 222° | - | - |
| 1788517678 | 27.22° C | - | - | 0 mm | 0.45 m/s, 141° | - | - |
| 1788517375 | 26.11° C | - | - | 0 mm | 0 m/s | - | - |
| 1788517073 | 26.67° C | - | - | 0 mm | 1.34 m/s, 187° | - | - |
| 1788516767 | 24.44° C | - | - | 0 mm | 1.34 m/s, 76° | - | - |
| 1788516461 | 25° C | - | - | 0 mm | 1.79 m/s, 101° | - | - |
| 1788516158 | 25° C | - | - | 0 mm | 1.79 m/s, 87° | - | - |
| 1788515855 | 24.44° C | - | - | 0 mm | 2.68 m/s, 77° | - | - |
| 1788515552 | 24.44° C | - | - | 0 mm | 3.13 m/s, 98° | - | - |
| 1788515246 | 25.56° C | - | - | 0 mm | 1.79 m/s, 107° | - | - |
* Rain latest hour (hover to see other rain measurements)
** Current wind speed in m/s (hover to see current wind gust speed)